Погода в Каменном Броде

Украина / Житомирская область     50°28′34″N   28°56′31″E
темп.,
°C
ветер,
м/с
пор.,
м/с
влажн.,
%
обл.,
%
осадки,
мм/ч
давл.,
гПа
погр.,
м
4 августа, ср
ср400:00+19зсз345179 0.0 101692
03:00+15ссз22654 0.0 101711
06:00+14с1172100 0.0 101810
09:00+20вюв225350 0.0 1018334
12:00+24ююв3441100 0.0 10171490
15:00+27ю353898 0.0 10152535
18:00+24ю475184 0.1 1014657
21:00+17ююз61089100 1.9 1016226
5 августа, чт
чт500:00+17ююв51194100 2.1 1015289
03:00+15ю369661 2.1 1014127
06:00+15ююз2396100 0.0 101365
09:00+20ююв3479100 0.0 1013303
12:00+25ююв356075 0.0 1012926
15:00+28ю554881 0.0 10101866
18:00+28ю46525 0.0 10081591
21:00+23юв34715 0.0 100648
6 августа, пт
пт600:00+21ююз3582100 0.9 1006101
03:00+19ююв51494100 10.1 1004502
06:00+18ю5139272 0.0 1003505
09:00+21ю4787100 0.3 1004557
12:00+22ююз5781100 0.1 1004842
15:00+24ю5775100 3.8 1004838
18:00+21ююз51085100 7.3 1004364
21:00+19зсз3589100 7.3 1005108
7 августа, сб
сб700:00+17ююз2294100 0.9 100732
03:00+16сз4793100 3.2 1008354
06:00+13зсз379376 0.0 1009288
09:00+16зсз577944 0.0 1010673
12:00+19зсз576432 0.0 10111048
15:00+22зсз67505 0.0 10111456
18:00+22сз46500 0.0 10121612
21:00+17сз22650 0.0 101315
8 августа, вс
вс800:00+14сз22730 0.0 101514
03:00+13зсз12770 0.0 101610
06:00+13зюз11780 0.0 101610
09:00+18з11602 0.0 1016248
12:00+23з114628 0.0 1016989
15:00+26сз22350 0.0 10151514
18:00+26сз22363 0.0 10151383
21:00+20ссз225399 0.0 101611